sat.trackr.live / text

‹ back to catalog

KUIPER-00258

NORAD 69763 · 2026-151A

PAYLOAD ACTIVE UNKNOWN

§ Identity

Operator
Country
US
Launch date
2026-07-02
Launch site
AFETR
Launch vehicle
Mass (kg)
RCS (m²)

External: N2YO · Heavens-Above · Gunter

§ Orbital elements

Epoch: 2026-09-20T04:00:03.000096Z

Period
96.25 min
Inclination
51.8896°
Eccentricity
0.0010925
Mean motion
14.96063432 rev/d
Perigee alt
571.5 km
Apogee alt
586.7 km
Semi-major
6,957.2 km
B*
-3.3162e-3
RAAN
221.1983°
Arg perigee
56.6280°
Mean anomaly
10.1824°
Rev number
296

§ Raw data

KUIPER-002581 69763U 26151A   26263.16670139 -.00037757  00000+0 -33162-2 0  99952 69763  51.8896 221.1983 0010925  56.6280  10.1824 14.96063432  2961

JSON: /api/v1/satellites/69763 · /tle

For live sub-satellite position, see the globe view (requires WebGL).

§ Visibility from observer

Set your observer location to see the next 7 days of passes ≥ 10°. The values pass through the URL so the page stays shareable.

No JS? Fill the form by hand. The geolocation button needs JavaScript.